[[{"header":{"parameterUnit":"m.s-1","parameterCategory":1,"la1":30.2991,"la2":30.254,"lo1":-89.0895,"lo2":-89.0444,"dy":0.0017,"dx":0.0017,"nx":28,"ny":28,"refTime":"2024-12-25T09:00:00:Z","depth":0,"parameterNumber":2,"parameterNumberName":"U-component_of_WINDS"},"data":[0,0,0,0,0,0,0,0,0,0,0,0,0,0,0,0,0,0,0,0,0,0,0,0,0,0,0,0,0,0,0,0,0,0,0,0,0,0,0,0,0,0,0,0,0,0,0,0,0,0,0,0,0,0,0,0,0,0,-6.1079,-6.108,0,-6.1122,-6.1123,-6.1123,-6.0975,-6.097,-6.0966,-6.0961,-6.1008,-6.1013,-6.1018,0,0,0,0,0,0,0,0,0,0,0,0,0,-6.087,-6.0875,-6.1079,-6.108,-6.108,-6.1122,-6.1123,-6.1123,-6.0975,-6.097,-6.0965,-6.0959,-6.1006,-6.1012,-6.1019,0,0,0,0,0,0,0,0,0,0,0,0,0,-6.0942,-6.0876,-6.1079,-6.1011,-6.1006,-6.1122,-6.1123,-6.1124,-6.0977,-6.097,-6.0963,-6.0957,-6.1004,-6.1012,-6.102,-6.1204,0,0,-6.1044,-6.1048,0,0,0,0,0,0,0,0,-6.0938,-6.095,-6.1021,-6.1016,-6.101,-6.1036,-6.1066,-6.1151,-6.0978,-6.0988,-6.0961,-6.0954,-6.1023,-6.1029,-6.1052,-6.1206,-6.1208,-6.1045,-6.105,-6.1054,-6.1056,0,0,0,0,0,0,0,-6.0934,-6.0947,-6.1096,-6.1022,-6.1016,-6.0979,-6.0982,-6.1081,-6.1042,-6.0986,-6.0976,-6.0983,-6.1019,-6.1044,-6.1052,-6.1209,-6.1045,-6.1052,-6.1057,-6.106,-6.1517,-6.1524,0,0,0,0,0,0,-6.0937,-6.0944,-6.1095,-6.1097,-6.0957,-6.0989,-6.0992,-6.1035,-6.1041,-6.1035,-6.0988,-6.0976,-6.1034,-6.1043,-6.1053,-6.1269,-6.1054,-6.1061,-6.1066,-6.151,-6.1519,-6.1527,0,0,0,0,0,0,-6.0933,-6.0952,-6.1093,-6.1018,-6.1033,-6.0999,-6.1049,-6.1039,-6.1064,-6.1042,-6.1035,-6.1022,-6.1029,-6.1041,-6.1168,-6.1269,-6.1065,-6.1072,-6.1502,-6.1513,-6.1523,-6.1704,0,0,0,0,0,0,-6.0928,-6.0951,-6.1021,-6.1021,-6.1038,-6.1207,-6.1055,-6.1045,-6.1079,-6.1062,-6.1072,-6.1067,-6.1025,-6.1156,-6.1176,-6.1276,-6.1078,-6.1492,-6.1507,-6.152,-6.1688,-6.1719,-6.1746,0,0,0,0,0,-6.0921,-6.107,-6.1025,-6.1044,-6.1123,-6.1213,-6.1223,-6.117,-6.1087,-6.1157,-6.1143,-6.1067,-6.1255,-6.117,-6.1191,-6.1296,-6.1486,-6.1503,-6.1519,-6.1676,-6.1713,-6.1745,0,0,0,0,0,0,-6.1083,-6.1069,-6.1018,-6.1172,-6.1195,-6.1188,-6.1273,-6.1212,-6.1259,-6.1242,-6.1176,-6.1179,-6.1318,-6.1319,-6.1225,-6.1475,-6.1356,-6.1377,-6.1468,-6.1504,-6.1532,-6.1529,-6.1085,0,0,0,0,0,-6.1137,-6.121,-6.1194,-6.1331,-6.1345,-6.1308,-6.1345,-6.1303,-6.1324,-6.1333,-6.1328,-6.1352,-6.1416,-6.146,-6.1518,-6.1688,-6.1688,-6.177,-6.1799,-6.1823,-6.1842,-6.1932,-6.1969,-6.1581,-6.1581,-6.158,0,0,-6.1248,-6.1249,-6.13,-6.1363,-6.1376,-6.1454,-6.1317,-6.1405,-6.1463,-6.1346,-6.1465,-6.1463,-6.1485,-6.1635,-6.17,-6.164,-6.1949,-6.1844,-6.1863,-6.1869,-6.1953,-6.199,-6.2022,-6.1592,-6.159,-6.1588,0,0,-6.149,-6.1499,-6.1614,-6.163,-6.1651,-6.1625,-6.1654,-6.1656,-6.165,-6.1768,-6.1683,-6.1751,-6.1863,-6.1883,-6.1908,-6.216,-6.2092,-6.2181,-6.233,-6.2419,-6.245,-6.2477,-6.2567,-6.26,-6.22,-6.22,-6.2201,0,-6.1626,-6.174,-6.1681,-6.1775,-6.1806,-6.1705,-6.1821,-6.184,-6.1879,-6.1903,-6.1836,-6.1975,-6.1983,-6.2135,-6.2197,-6.2221,-6.2251,-6.2179,-6.245,-6.2476,-6.2501,-6.2586,-6.262,-6.2211,-6.221,-6.2209,-6.2208,0,-6.1906,-6.1986,-6.2077,-6.2117,-6.2158,-6.2264,-6.2222,-6.227,-6.2226,-6.2208,-6.233,-6.2336,-6.2394,-6.2427,-6.2384,-6.2575,-6.2537,-6.2461,-6.234,-6.2549,-6.2628,-6.266,-6.2226,-6.2223,-6.2219,-6.2217,0,0,-6.2251,-6.2258,-6.2292,-6.2309,-6.2326,-6.2387,-6.2489,-6.2545,-6.2588,-6.2619,-6.2703,-6.2801,-6.2731,-6.276,-6.2718,-6.2797,-6.2996,-6.2711,-6.271,-6.2764,-6.3207,-6.3263,-6.3302,-6.2952,-6.2958,-6.2962,-6.3205,0,-6.2489,-6.2661,-6.2612,-6.2785,-6.2858,-6.2764,-6.2852,-6.2873,-6.2859,-6.2921,-6.2906,-6.2977,-6.2879,-6.2896,-6.2969,-6.2957,-6.3084,-6.2938,-6.3029,-6.3033,-6.3026,-6.3343,-6.3403,-6.3631,-6.3235,-6.324,-6.3244,0,-6.2789,-6.2832,-6.3013,-6.3018,-6.3047,-6.3127,-6.3175,-6.3234,-6.3256,-6.3241,-6.3274,-6.3217,-6.3317,-6.3197,-6.3335,-6.3237,-6.3271,-6.3271,-6.3279,-6.3285,-6.3151,-6.3357,-6.3703,-6.3737,-6.3292,-6.3288,-6.3285,0,-6.3023,-6.3126,-6.3247,-6.3265,-6.3273,-6.3332,-6.3339,-6.3353,-6.3391,-6.3433,-6.3457,-6.3511,-6.3541,-6.3585,-6.3544,-6.346,-6.3689,-6.3565,-6.368,-6.3681,-6.3731,-6.3728,-6.4087,-6.3755,-6.3754,-6.3754,-6.3753,0,-6.3293,-6.3408,-6.3351,-6.3426,-6.3552,-6.3495,-6.3621,-6.3616,-6.3631,-6.3704,-6.3626,-6.3696,-6.3638,-6.3704,-6.3673,-6.3793,-6.3807,-6.3798,-6.3788,-6.3804,-6.3806,-6.3825,-6.3808,-6.3763,-6.3761,-6.3759,-6.3758,0,-6.3575,-6.3542,-6.3667,-6.3666,-6.3668,-6.3761,-6.3759,-6.3829,-6.381,-6.3904,-6.3922,-6.3894,-6.3967,-6.3931,-6.4008,-6.3987,-6.4141,-6.411,-6.4133,-6.4125,-6.4242,-6.4231,-6.4625,-6.4673,-6.4311,-6.4315,-6.4318,0,-6.3749,-6.3835,-6.3842,-6.3885,-6.3897,-6.3967,-6.4005,-6.3953,-6.3996,-6.4028,-6.4094,-6.416,-6.421,-6.4332,-6.4318,-6.4377,-6.4347,-6.4481,-6.4355,-6.4369,-6.4348,-6.4344,-6.4352,-6.4506,-6.451,-6.4513,-6.4516,0,-6.4063,-6.4042,-6.4099,-6.4152,-6.4199,-6.4237,-6.4269,-6.4309,-6.4258,-6.431,-6.4384,-6.4423,-6.4501,-6.4568,-6.462,-6.4627,-6.4564,-6.4556,-6.4586,-6.4603,-6.4612,-6.4608,-6.4202,-6.4547,-6.4544,-6.4542,-6.454,-6.4539,-6.4295,-6.4367,-6.4384,-6.445,-6.4469,-6.4501,-6.4566,-6.4556,-6.4616,-6.4675,-6.4642,-6.4728,-6.4749,-6.4811,-6.4827,-6.4895,-6.4841,-6.4884,-6.4895,-6.4906,-6.4922,-6.4603,-6.4904,-6.4903,-6.4902,-6.4901,-6.4901,0,-6.4604,-6.461,-6.4672,-6.4719,-6.4772,-6.4708,-6.4741,-6.4789,-6.4866,-6.4891,-6.4942,-6.5027,-6.5092,-6.5085,-6.5145,-6.52,-6.5173,-6.5218,-6.5213,-6.5216,-6.4966,-6.4934,-6.5239,-6.5239,-6.5239,-6.5239,-6.5239,-6.5239,-6.4771,-6.4889,-6.4871,-6.4998,-6.5004,-6.5087,-6.5112,-6.5141,-6.516,-6.5259,-6.5313,-6.5307,-6.5319,-6.5379,-6.5437,-6.5433,-6.5459,-6.5514,-6.55,-6.5267,-6.5233,-6.5201,-6.5171,-6.5521,-6.5521,-6.5744,-6.5746,-6.5747]},{"header":{"parameterUnit":"m.s-1","parameterCategory":1,"la1":30.2991,"la2":30.254,"lo1":-89.0895,"lo2":-89.0444,"dy":0.0017,"dx":0.0017,"nx":28,"ny":28,"refTime":"2024-12-25T09:00:00:Z","depth":0,"parameterNumber":3,"parameterNumberName":"V-component_of_WINDS"},"data":[0,0,0,0,0,0,0,0,0,0,0,0,0,0,0,0,0,0,0,0,0,0,0,0,0,0,0,0,0,0,0,0,0,0,0,0,0,0,0,0,0,0,0,0,0,0,0,0,0,0,0,0,0,0,0,0,0,0,-1.1973,-1.1972,0,-1.1934,-1.1934,-1.1933,-1.1874,-1.1873,-1.1872,-1.1871,-1.1832,-1.1832,-1.1832,0,0,0,0,0,0,0,0,0,0,0,0,0,-1.1994,-1.1994,-1.1973,-1.1972,-1.1972,-1.1934,-1.1933,-1.1933,-1.1874,-1.1873,-1.1872,-1.187,-1.1832,-1.1832,-1.1832,0,0,0,0,0,0,0,0,0,0,0,0,0,-1.1973,-1.1994,-1.1973,-1.1938,-1.1934,-1.1934,-1.1933,-1.1933,-1.1874,-1.1873,-1.1871,-1.187,-1.1832,-1.1832,-1.1832,-1.1863,0,0,-1.1831,-1.1831,0,0,0,0,0,0,0,0,-1.1974,-1.1972,-1.1943,-1.194,-1.1936,-1.1907,-1.1927,-1.1909,-1.1875,-1.1897,-1.1871,-1.1869,-1.1858,-1.1856,-1.1852,-1.1861,-1.1859,-1.1831,-1.1831,-1.1831,-1.1831,0,0,0,0,0,0,0,-1.1976,-1.1974,-1.1957,-1.1943,-1.1939,-1.1923,-1.1919,-1.1923,-1.1887,-1.1895,-1.1891,-1.1887,-1.1856,-1.1852,-1.1851,-1.1859,-1.1831,-1.1831,-1.1831,-1.1831,-1.1888,-1.1889,0,0,0,0,0,0,-1.1983,-1.1975,-1.1959,-1.1956,-1.1952,-1.1924,-1.1919,-1.1918,-1.1887,-1.188,-1.1888,-1.1884,-1.1853,-1.1851,-1.1849,-1.1881,-1.1831,-1.1831,-1.1831,-1.1886,-1.1888,-1.189,0,0,0,0,0,0,-1.1983,-1.1982,-1.196,-1.1965,-1.1961,-1.1926,-1.1925,-1.1918,-1.1914,-1.1882,-1.1875,-1.1891,-1.1852,-1.1849,-1.1859,-1.1879,-1.1831,-1.1831,-1.1885,-1.1887,-1.1889,-1.1948,0,0,0,0,0,0,-1.1984,-1.1982,-1.1994,-1.1965,-1.1961,-1.1972,-1.1926,-1.1919,-1.1914,-1.1909,-1.1883,-1.1877,-1.185,-1.1859,-1.1859,-1.1878,-1.1831,-1.1883,-1.1886,-1.1888,-1.1944,-1.1952,-1.1959,0,0,0,0,0,-1.1985,-1.2013,-1.1995,-1.1994,-1.1975,-1.1973,-1.197,-1.1939,-1.1916,-1.1928,-1.1906,-1.1878,-1.1877,-1.1861,-1.186,-1.188,-1.1881,-1.1885,-1.1888,-1.1941,-1.195,-1.1959,0,0,0,0,0,0,-1.2047,-1.2009,-1.1989,-1.2008,-1.1994,-1.1963,-1.1976,-1.1951,-1.1943,-1.1938,-1.19,-1.1894,-1.1909,-1.1895,-1.1878,-1.1906,-1.1875,-1.1878,-1.1915,-1.1924,-1.1931,-1.1934,-1.1831,0,0,0,0,0,-1.2062,-1.2064,-1.2031,-1.2051,-1.2045,-1.2012,-1.201,-1.1987,-1.1971,-1.1965,-1.1944,-1.1929,-1.1925,-1.1924,-1.1919,-1.1941,-1.1934,-1.1954,-1.1962,-1.1968,-1.1971,-1.198,-1.1988,-1.1901,-1.1901,-1.1901,0,0,-1.2095,-1.2075,-1.2078,-1.2063,-1.2049,-1.2051,-1.2008,-1.2012,-1.2012,-1.1965,-1.1973,-1.1957,-1.1938,-1.1954,-1.196,-1.1943,-1.1993,-1.1972,-1.1978,-1.1977,-1.1984,-1.1992,-1.2,-1.1904,-1.1903,-1.1903,0,0,-1.2156,-1.2141,-1.2155,-1.2142,-1.2121,-1.2098,-1.2102,-1.2074,-1.2061,-1.2068,-1.2032,-1.2032,-1.2027,-1.2014,-1.2007,-1.2059,-1.2032,-1.2058,-1.2097,-1.2106,-1.2112,-1.2118,-1.2135,-1.2142,-1.2062,-1.2062,-1.2062,0,-1.2199,-1.22,-1.2166,-1.2171,-1.2165,-1.2121,-1.2134,-1.2123,-1.2102,-1.2098,-1.208,-1.207,-1.2055,-1.2066,-1.2078,-1.2074,-1.2076,-1.2061,-1.2114,-1.212,-1.2125,-1.214,-1.2147,-1.2065,-1.2065,-1.2064,-1.2064,0,-1.2254,-1.2255,-1.2269,-1.2248,-1.2243,-1.2253,-1.2219,-1.2218,-1.2195,-1.2174,-1.218,-1.2159,-1.2148,-1.2148,-1.2127,-1.2156,-1.2145,-1.2121,-1.2088,-1.2137,-1.2151,-1.2157,-1.207,-1.2069,-1.2068,-1.2067,0,0,-1.2353,-1.2312,-1.2317,-1.2306,-1.2279,-1.2279,-1.2286,-1.2274,-1.2273,-1.2259,-1.2263,-1.2258,-1.2234,-1.2226,-1.2202,-1.221,-1.225,-1.2184,-1.2183,-1.2196,-1.2279,-1.2296,-1.2304,-1.2232,-1.2233,-1.2234,-1.228,0,-1.2407,-1.2416,-1.2384,-1.2401,-1.2401,-1.2358,-1.2363,-1.2347,-1.2327,-1.2323,-1.23,-1.2297,-1.2267,-1.2261,-1.2267,-1.2244,-1.2266,-1.224,-1.2234,-1.2234,-1.2239,-1.2312,-1.2331,-1.2376,-1.2285,-1.2286,-1.2287,0,-1.2472,-1.246,-1.2477,-1.2446,-1.2445,-1.245,-1.2435,-1.2433,-1.2412,-1.2397,-1.2386,-1.2358,-1.2361,-1.2329,-1.2332,-1.2315,-1.2311,-1.2299,-1.2299,-1.2297,-1.2263,-1.231,-1.2389,-1.2396,-1.2295,-1.2295,-1.2294,0,-1.2541,-1.2529,-1.2537,-1.2529,-1.2494,-1.2499,-1.2484,-1.2462,-1.2456,-1.2443,-1.2438,-1.2426,-1.2419,-1.241,-1.2378,-1.2359,-1.2384,-1.2351,-1.2371,-1.2371,-1.2378,-1.2378,-1.2456,-1.2377,-1.2376,-1.2376,-1.2376,0,-1.2604,-1.2616,-1.2567,-1.2572,-1.2583,-1.2545,-1.2557,-1.2538,-1.2518,-1.2518,-1.248,-1.2481,-1.2439,-1.2434,-1.2409,-1.2414,-1.2412,-1.2399,-1.2392,-1.2402,-1.2403,-1.2398,-1.2394,-1.2378,-1.2378,-1.2377,-1.2377,0,-1.2683,-1.2652,-1.2657,-1.2622,-1.2614,-1.2623,-1.2593,-1.2595,-1.2572,-1.2572,-1.2569,-1.2533,-1.2525,-1.2492,-1.2478,-1.246,-1.2473,-1.2461,-1.248,-1.2476,-1.2497,-1.2495,-1.2574,-1.2581,-1.2498,-1.2499,-1.25,0,-1.2726,-1.2733,-1.2699,-1.2695,-1.2682,-1.2678,-1.2671,-1.2633,-1.2627,-1.2603,-1.2608,-1.2597,-1.2586,-1.2575,-1.2547,-1.2535,-1.2521,-1.2549,-1.2519,-1.2527,-1.2519,-1.2519,-1.2519,-1.2556,-1.2557,-1.2558,-1.2558,0,-1.2803,-1.2786,-1.2778,-1.2763,-1.2756,-1.2743,-1.2727,-1.2727,-1.2684,-1.268,-1.2671,-1.2662,-1.2645,-1.2635,-1.2617,-1.2601,-1.2572,-1.2568,-1.2572,-1.2581,-1.2592,-1.2585,-1.2497,-1.2566,-1.2566,-1.2565,-1.2565,-1.2564,-1.2864,-1.2868,-1.2843,-1.2834,-1.2818,-1.2804,-1.2804,-1.278,-1.2772,-1.2755,-1.2733,-1.2726,-1.2703,-1.2676,-1.2662,-1.2656,-1.264,-1.2646,-1.2647,-1.2649,-1.2653,-1.2593,-1.2653,-1.2652,-1.2652,-1.2652,-1.2652,0,-1.2938,-1.292,-1.2912,-1.2891,-1.2883,-1.2856,-1.2837,-1.2832,-1.2827,-1.2807,-1.2797,-1.2785,-1.2774,-1.2744,-1.2729,-1.273,-1.2716,-1.2727,-1.2726,-1.2723,-1.2669,-1.2666,-1.2738,-1.2738,-1.2738,-1.2738,-1.2738,-1.2738,-1.2976,-1.298,-1.296,-1.2955,-1.2936,-1.2929,-1.292,-1.2906,-1.289,-1.2879,-1.2869,-1.2849,-1.2825,-1.2808,-1.2795,-1.2787,-1.2782,-1.2798,-1.2785,-1.2735,-1.2727,-1.2719,-1.2716,-1.2797,-1.2797,-1.2839,-1.2839,-1.2839]}]]